ZL2VAX Weather Reports


time (UTC)temp
F
wind
direction
speed
knots
gust
knots
rain 1hr
in
rain 24hr
in
rain mn
in
humidity
%
barometer
mb
20260506050544 63 258 1.7 3.5 0.00 0.00 0.00 78 1027.2
20260506044600 64 248 1.7 6.1 0.00 0.00 0.00 76 1027.1
20260506043536 65 248 0.0 1.7 0.00 0.00 0.00 74 1027.1
20260506042554 67 100 0.0 1.7 0.00 0.00 0.00 71 1027.0
20260506041531 67 261 0.0 1.7 0.00 0.00 0.00 71 1027.1
20260506040529 67 221 0.9 3.5 0.00 0.00 0.00 71 1027.2
20260506035546 67 223 2.6 6.1 0.00 0.00 0.00 71 1027.2
20260506034523 66 241 1.7 3.5 0.00 0.00 0.00 73 1027.1
20260506033603 67 240 4.3 13.0 0.00 0.00 0.00 71 1027.1
20260506032518 66 180 1.7 6.1 0.00 0.00 0.00 72 1027.0
20260506031536 67 242 1.7 6.1 0.00 0.00 0.00 72 1027.0
20260506030614 67 261 2.6 9.6 0.00 0.00 0.00 71 1027.1
20260506025610 67 283 0.9 3.5 0.00 0.00 0.00 71 1027.0
20260506024630 66 187 1.7 6.1 0.00 0.00 0.00 73 1027.1
20260506023625 66 263 2.6 9.6 0.00 0.00 0.00 73 1027.1
20260506022603 66 258 3.5 13.9 0.00 0.00 0.00 72 1027.1
20260506021601 66 257 3.5 7.8 0.00 0.00 0.00 72 1027.2
20260506020558 67 276 4.3 11.3 0.00 0.00 0.00 71 1027.1
20260506015556 66 216 4.3 9.6 0.00 0.00 0.00 71 1027.3
20260506014552 67 255 2.6 7.8 0.00 0.00 0.00 69 1027.3
20260506013550 69 276 1.7 6.1 0.00 0.00 0.00 67 1027.2
20260506012609 68 279 5.2 13.0 0.00 0.00 0.00 67 1027.2
20260506011545 66 328 1.7 3.5 0.00 0.00 0.00 70 1027.4
20260506010543 66 234 0.9 3.5 0.00 0.00 0.00 71 1027.5
20260506005541 66 234 3.5 12.2 0.00 0.00 0.00 70 1027.6
20260506004557 67 270 6.1 12.2 0.00 0.00 0.00 71 1027.7
20260506003535 67 243 7.0 13.9 0.00 0.00 0.00 70 1027.9
20260506002537 67 296 5.2 15.6 0.00 0.00 0.00 69 1027.8
20260506001534 67 265 3.5 7.0 0.00 0.00 0.00 69 1028.0
20260506000527 67 277 4.3 12.2 0.00 0.00 0.00 70 1028.1
20260505235524 67 261 5.2 11.3 0.00 0.00 0.00 69 1028.2
20260505234523 68 276 3.5 9.6 0.00 0.00 0.00 69 1028.3
20260505233540 67 283 6.1 11.3 0.00 0.00 0.00 70 1028.3
20260505232558 66 283 7.0 13.0 0.00 0.00 0.00 70 1028.4
20260505231634 66 296 4.3 12.2 0.00 0.00 0.00 70 1028.4
20260505230611 65 285 6.1 12.2 0.00 0.00 0.00 70 1028.5
20260505225610 66 278 4.3 9.6 0.00 0.00 0.00 71 1028.6
20260505224607 65 292 3.5 7.8 0.00 0.00 0.00 72 1028.7
20260505223603 64 294 0.9 3.5 0.00 0.00 0.00 74 1028.7
20260505222642 63 334 0.9 1.7 0.00 0.00 0.00 75 1028.9
20260505221600 62 40 0.9 3.5 0.00 0.00 0.00 76 1029.0
20260505220556 61 351 0.9 3.5 0.00 0.00 0.00 78 1029.1
20260505215553 60 315 0.9 1.7 0.00 0.00 0.00 80 1029.3
20260505214632 61 255 1.7 3.5 0.00 0.00 0.00 79 1029.4
20260505213548 61 256 1.7 5.2 0.00 0.00 0.00 79 1029.4
20260505212546 61 345 1.7 3.5 0.00 0.00 0.00 78 1029.4
20260505211543 63 347 1.7 3.5 0.00 0.00 0.00 74 1029.6
20260505210602 61 316 1.7 3.5 0.00 0.00 0.00 77 1029.6
20260505205538 61 354 1.7 5.2 0.00 0.00 0.00 75 1029.6
20260505204537 60 263 3.5 7.0 0.00 0.00 0.00 77 1029.6
20260505203533 60 283 1.7 5.2 0.00 0.00 0.00 78 1029.5
20260505202531 58 208 3.5 5.2 0.00 0.00 0.00 79 1029.5
20260505201528 58 245 4.3 9.6 0.00 0.00 0.00 79 1029.4
20260505200525 58 254 4.3 9.6 0.00 0.00 0.00 80 1029.3
20260505195524 58 255 4.3 7.8 0.00 0.00 0.00 80 1029.3
20260505194520 57 242 6.1 9.6 0.00 0.00 0.00 80 1029.4
20260505193518 57 257 5.2 9.6 0.00 0.00 0.00 81 1029.3
20260505192617 57 266 2.6 6.1 0.00 0.00 0.00 81 1029.2
20260505191613 57 271 6.1 9.6 0.00 0.00 0.00 80 1029.2
20260505190610 56 264 3.5 7.0 0.00 0.00 0.00 81 1029.1
20260505185607 56 264 1.7 3.5 0.00 0.00 0.00 80 1029.2
20260505184605 57 278 1.7 5.2 0.00 0.00 0.00 80 1029.2
20260505183602 56 256 3.5 5.2 0.00 0.00 0.00 81 1029.0
20260505182600 57 239 2.6 6.1 0.00 0.00 0.00 80 1029.1
20260505181618 57 250 3.5 7.0 0.00 0.00 0.00 80 1029.1
20260505180555 57 248 3.5 7.8 0.00 0.00 0.00 80 1029.1
20260505175613 55 266 1.7 3.5 0.00 0.00 0.00 83 1029.2
20260505174549 55 0.0 0.0 0.00 0.00 0.00 83 1029.2
20260505173547 56 61 0.9 1.7 0.00 0.00 0.00 82 1029.2
20260505172605 56 248 0.0 1.7 0.00 0.00 0.00 81 1029.4
20260505171606 56 253 0.0 3.5 0.00 0.00 0.00 81 1029.6
20260505170539 57 0.0 0.0 0.00 0.00 0.00 80 1029.6
20260505165536 57 257 2.6 6.1 0.00 0.00 0.00 80 1029.6
20260505164535 57 254 4.3 7.8 0.00 0.00 0.00 80 1029.6
20260505163532 57 257 3.5 9.6 0.00 0.00 0.00 80 1029.6
20260505162529 57 255 3.5 7.8 0.00 0.00 0.00 80 1029.6
20260505161526 57 246 4.3 9.6 0.00 0.00 0.00 80 1029.7
20260505160523 57 233 4.3 7.8 0.00 0.00 0.00 80 1029.5
20260505152613 58 278 3.5 6.1 0.00 0.00 0.00 79 1029.6
20260505151611 57 277 3.5 6.1 0.00 0.00 0.00 79 1029.6
20260505150608 57 340 2.6 5.2 0.00 0.00 0.00 80 1029.9
20260505140557 53 0.0 0.0 0.00 0.00 0.00 89 1030.6
20260505124532 53 0.0 0.0 0.00 0.00 0.00 87 1031.4
20260505123530 53 0.0 0.0 0.00 0.00 0.00 86 1031.5
20260505122532 53 0.0 0.0 0.00 0.00 0.00 86 1031.5
20260505121525 53 0.0 0.0 0.00 0.00 0.00 85 1031.5
20260505120521 53 0.0 0.0 0.00 0.00 0.00 85 1031.6
20260505115519 52 0.0 0.0 0.00 0.00 0.00 86 1031.6
20260505114516 52 0.0 0.0 0.00 0.00 0.00 86 1031.7
20260505113614 51 0.0 0.0 0.00 0.00 0.00 87 1031.7
20260505112611 51 0.0 0.0 0.00 0.00 0.00 88 1031.9
20260505111631 50 0.0 0.0 0.00 0.00 0.00 87 1031.9
20260505110606 49 0.0 0.0 0.00 0.00 0.00 88 1032.0
20260505101554 49 298 0.9 3.5 0.00 0.00 0.00 86 1032.4
20260505100551 50 270 0.9 1.7 0.00 0.00 0.00 85 1032.4
20260505095548 50 282 1.7 3.5 0.00 0.00 0.00 85 1032.4
20260505094545 49 293 1.7 3.5 0.00 0.00 0.00 86 1032.4
20260505093603 50 274 1.7 3.5 0.00 0.00 0.00 85 1032.4
20260505092540 51 293 2.6 3.5 0.00 0.00 0.00 83 1032.4
20260505091539 53 283 3.5 3.5 0.00 0.00 0.00 80 1032.3
20260505090535 52 287 2.6 5.2 0.00 0.00 0.00 81 1032.3
20260505085533 52 278 1.7 3.5 0.00 0.00 0.00 82 1032.3
20260505084530 51 270 2.6 3.5 0.00 0.00 0.00 83 1032.3
20260505083527 51 293 1.7 3.5 0.00 0.00 0.00 84 1032.4
20260505082525 50 286 2.6 3.5 0.00 0.00 0.00 84 1032.4
20260505081543 50 270 1.7 1.7 0.00 0.00 0.00 84 1032.5
20260505080520 49 296 0.0 3.5 0.00 0.00 0.00 85 1032.5
20260505075517 49 261 0.9 3.5 0.00 0.00 0.00 86 1032.5
20260505074614 50 279 0.9 1.7 0.00 0.00 0.00 83 1032.6
20260505073617 52 287 0.9 3.5 0.00 0.00 0.00 81 1032.5
20260505072609 52 264 1.7 5.2 0.00 0.00 0.00 80 1032.5
20260505071628 51 293 0.0 1.7 0.00 0.00 0.00 81 1032.5
20260505070604 51 277 0.9 3.5 0.00 0.00 0.00 83 1032.5
20260505065623 52 0.0 1.7 0.00 0.00 0.00 81 1032.4
20260505064604 51 283 0.0 1.7 0.00 0.00 0.00 83 1032.4
20260505063557 51 319 0.9 3.5 0.00 0.00 0.00 84 1032.4
20260505062554 51 282 0.9 3.5 0.00 0.00 0.00 84 1032.4
20260505061552 51 256 0.9 3.5 0.00 0.00 0.00 84 1032.4
20260505060549 52 307 0.9 3.5 0.00 0.00 0.00 81 1032.3
20260505055547 53 203 0.9 1.7 0.00 0.00 0.00 80 1032.4
20260505054543 54 131 0.9 3.5 0.00 0.00 0.00 78 1032.2
20260505053541 55 113 0.0 1.7 0.00 0.00 0.00 77 1032.1